Location: Bosmont
(49.7318°N, 3.8587°E)
Time: 10:08:07
(UTC+00:00)

Cosmos 1812 Rocket - Pass Details

Date: 08 February 2023
Orbit: 603 x 631 km, 82.5° (Epoch: 23 March)

Event Time Altitude Azimuth Distance (km) Brightness Sun altitude
Rises 18:45:38 0° 350° (N) 2,937 7.1 -18.8°
Reaches altitude 10° 18:47:53 10° 351° (N) 2,022 6.3 -19.2°
Maximum altitude 18:52:23 82° 78° (ENE) 640 3.4 -19.9°
Drops below altitude 10° 18:56:49 10° 168° (SSE) 1,991 6.0 -20.7°
Sets 18:59:01 0° 170° (S) 2,888 6.9 -21.0°
